Location: Observatoire
(46.1952°N, 5.3391°E)
Time: 22:09:59
(UTC+01:00)

A-11 Canister half - Pass Details

Date: 24 February 2026
Orbit: 1525 x 1683 km, 47.3° (Epoch: 5 March)

Event Time Altitude Azimuth Distance (km) Brightness Sun altitude
Rises 22:06:37 0° 292° (WNW) 4,679 12.4 -39.0°
Reaches altitude 10° 22:09:59 10° 284° (WNW) 3,693 11.6 -39.5°
Enters shadow 22:17:34 34° 229° (SW) 2,308 9.9 -40.5°
Maximum altitude 22:18:01 34° 224° (SW) 2,303 - -40.6°
Drops below altitude 10° 22:26:07 10° 163° (SSE) 3,726 - -41.7°
Sets 22:29:33 0° 155° (SSE) 4,726 - -42.2°
